Time,TemperatureF,DewpointF,PressureIn,WindDirection,WindDirectionDegrees,WindSpeedMPH,WindSpeedGustMPH,Humidity,HourlyPrecipIn,Conditions,Clouds,dailyrainin,SoftwareType,DateUTC
2013-01-09 00:03:00,66.9,66.6,29.80,SE,129,12.0,16.0,99,0.03,,,0.03,meteohub,2013-01-09 06:03:00,
2013-01-09 00:08:00,66.9,66.6,29.80,ESE,111,11.0,16.0,99,0.03,,,0.03,meteohub,2013-01-09 06:08:00,
2013-01-09 00:13:00,66.9,66.6,29.80,SSE,156,7.0,15.0,99,0.03,,,0.03,meteohub,2013-01-09 06:13:00,
2013-01-09 00:18:00,66.9,66.6,29.80,SE,142,8.0,15.0,99,0.02,,,0.03,meteohub,2013-01-09 06:18:00,
2013-01-09 00:23:00,66.9,66.6,29.80,SSE,166,6.0,14.0,99,0.01,,,0.03,meteohub,2013-01-09 06:23:00,
2013-01-09 00:28:00,66.9,66.6,29.80,ESE,119,6.0,11.0,99,0.01,,,0.03,meteohub,2013-01-09 06:28:00,
2013-01-09 00:33:00,66.9,66.6,29.81,SE,143,6.0,11.0,99,0.00,,,0.03,meteohub,2013-01-09 06:33:00,
2013-01-09 00:38:00,66.9,66.6,29.81,SE,138,6.0,9.0,99,0.00,,,0.03,meteohub,2013-01-09 06:38:00,
2013-01-09 00:43:00,66.9,66.6,29.81,SSW,195,6.0,9.0,99,0.00,,,0.03,meteohub,2013-01-09 06:43:00,
2013-01-09 00:48:00,66.9,66.6,29.81,South,184,4.0,9.0,99,0.00,,,0.03,meteohub,2013-01-09 06:48:00,
2013-01-09 00:53:00,66.7,66.4,29.81,SSE,153,3.0,8.0,99,0.00,,,0.03,meteohub,2013-01-09 06:53:00,
2013-01-09 00:58:00,66.9,66.6,29.80,South,176,5.0,8.0,99,0.00,,,0.03,meteohub,2013-01-09 06:58:00,
2013-01-09 01:03:00,66.9,66.6,29.80,SSE,158,7.0,7.0,99,0.00,,,0.03,meteohub,2013-01-09 07:03:00,
2013-01-09 01:08:00,66.9,66.6,29.79,SSE,165,5.0,8.0,99,0.00,,,0.03,meteohub,2013-01-09 07:08:00,
2013-01-09 01:13:00,67.1,66.7,29.79,South,180,7.0,8.0,99,0.00,,,0.03,meteohub,2013-01-09 07:13:00,
2013-01-09 01:18:00,66.9,66.6,29.80,SSE,149,7.0,8.0,99,0.00,,,0.03,meteohub,2013-01-09 07:18:00,
2013-01-09 01:23:00,66.9,66.6,29.80,SSE,159,5.0,9.0,99,0.00,,,0.03,meteohub,2013-01-09 07:23:00,
2013-01-09 01:28:00,66.9,66.6,29.80,SE,139,10.0,10.0,99,0.00,,,0.03,meteohub,2013-01-09 07:28:00,
2013-01-09 01:33:00,67.1,66.7,29.80,SE,141,11.0,12.0,99,0.00,,,0.03,meteohub,2013-01-09 07:33:00,
2013-01-09 01:38:00,67.1,66.7,29.79,SE,139,7.0,13.0,99,0.00,,,0.03,meteohub,2013-01-09 07:38:00,
2013-01-09 01:43:00,67.1,66.7,29.79,SSE,160,6.0,13.0,99,0.00,,,0.03,meteohub,2013-01-09 07:43:00,
2013-01-09 01:48:00,67.1,66.7,29.80,SE,138,6.0,13.0,99,0.00,,,0.03,meteohub,2013-01-09 07:48:00,
2013-01-09 01:53:00,67.1,66.7,29.80,SSE,166,5.0,12.0,99,0.00,,,0.03,meteohub,2013-01-09 07:53:00,
2013-01-09 01:58:00,67.3,66.9,29.79,SSE,151,4.0,12.0,99,0.00,,,0.03,meteohub,2013-01-09 07:58:00,
2013-01-09 02:03:00,67.3,66.9,29.79,SSE,155,4.0,9.0,99,0.00,,,0.03,meteohub,2013-01-09 08:03:00,
2013-01-09 02:08:00,67.1,66.7,29.78,ESE,122,4.0,9.0,99,0.00,,,0.03,meteohub,2013-01-09 08:08:00,
2013-01-09 02:13:00,67.1,66.7,29.78,SE,137,6.0,8.0,99,0.00,,,0.03,meteohub,2013-01-09 08:13:00,
2013-01-09 02:18:00,67.1,66.7,29.78,SE,131,7.0,7.0,99,0.00,,,0.03,meteohub,2013-01-09 08:18:00,
2013-01-09 02:23:00,66.9,66.6,29.78,SE,127,4.0,8.0,99,0.00,,,0.03,meteohub,2013-01-09 08:23:00,
2013-01-09 02:28:00,66.9,66.6,29.78,SE,124,4.0,8.0,99,0.00,,,0.03,meteohub,2013-01-09 08:28:00,
2013-01-09 02:33:00,66.9,66.6,29.78,SE,126,5.0,8.0,99,0.00,,,0.03,meteohub,2013-01-09 08:33:00,
2013-01-09 02:38:00,66.9,66.6,29.78,SE,131,5.0,7.0,99,0.00,,,0.03,meteohub,2013-01-09 08:38:00,
2013-01-09 02:43:00,66.9,66.6,29.78,SE,135,6.0,8.0,99,0.00,,,0.03,meteohub,2013-01-09 08:43:00,
2013-01-09 02:48:00,66.9,66.6,29.79,SE,124,6.0,8.0,99,0.00,,,0.03,meteohub,2013-01-09 08:48:00,
2013-01-09 02:53:00,66.9,66.6,29.79,ESE,114,11.0,11.0,99,0.00,,,0.03,meteohub,2013-01-09 08:53:00,
2013-01-09 02:58:00,66.9,66.6,29.80,SE,139,8.0,12.0,99,0.00,,,0.03,meteohub,2013-01-09 08:58:00,
2013-01-09 03:03:00,66.9,66.6,29.79,ESE,120,5.0,13.0,99,0.00,,,0.03,meteohub,2013-01-09 09:03:00,
2013-01-09 03:08:00,67.1,66.7,29.79,SE,136,4.0,13.0,99,0.00,,,0.03,meteohub,2013-01-09 09:08:00,
2013-01-09 03:13:00,67.1,66.7,29.79,SE,134,5.0,12.0,99,0.00,,,0.03,meteohub,2013-01-09 09:13:00,
2013-01-09 03:18:00,67.3,67.3,29.79,SE,139,4.0,10.0,100,0.00,,,0.03,meteohub,2013-01-09 09:18:00,
2013-01-09 03:23:00,67.5,67.5,29.79,SE,144,8.0,9.0,100,0.00,,,0.03,meteohub,2013-01-09 09:23:00,
2013-01-09 03:28:00,67.5,67.5,29.79,South,177,3.0,9.0,100,0.05,,,0.08,meteohub,2013-01-09 09:28:00,
2013-01-09 03:33:00,67.5,67.5,29.78,SSW,197,4.0,9.0,100,0.08,,,0.11,meteohub,2013-01-09 09:33:00,
2013-01-09 03:38:00,67.5,67.5,29.78,South,183,5.0,9.0,100,0.08,,,0.11,meteohub,2013-01-09 09:38:00,
2013-01-09 03:43:00,67.5,67.5,29.78,SSE,150,3.0,9.0,100,0.08,,,0.11,meteohub,2013-01-09 09:43:00,
2013-01-09 03:48:00,67.3,67.3,29.77,SE,136,3.0,5.0,100,0.08,,,0.11,meteohub,2013-01-09 09:48:00,
2013-01-09 03:53:00,67.3,67.3,29.77,SSE,149,3.0,5.0,100,0.08,,,0.11,meteohub,2013-01-09 09:53:00,
2013-01-09 03:58:00,67.3,67.3,29.77,South,188,3.0,4.0,100,0.08,,,0.11,meteohub,2013-01-09 09:58:00,
2013-01-09 04:03:00,67.3,67.3,29.77,South,180,4.0,5.0,100,0.08,,,0.11,meteohub,2013-01-09 10:03:00,
2013-01-09 04:08:00,67.3,67.3,29.77,South,187,3.0,5.0,100,0.08,,,0.11,meteohub,2013-01-09 10:08:00,
2013-01-09 04:13:00,67.3,67.3,29.77,South,180,3.0,6.0,100,0.08,,,0.11,meteohub,2013-01-09 10:13:00,
2013-01-09 04:18:00,67.3,67.3,29.78,SW,221,3.0,6.0,100,0.08,,,0.11,meteohub,2013-01-09 10:18:00,
2013-01-09 04:23:00,67.1,67.1,29.78,SSW,204,2.0,6.0,100,0.05,,,0.11,meteohub,2013-01-09 10:23:00,
2013-01-09 04:28:00,67.3,67.3,29.77,South,177,5.0,7.0,100,0.02,,,0.12,meteohub,2013-01-09 10:28:00,
2013-01-09 04:33:00,67.1,67.1,29.77,SSW,204,1.0,7.0,100,0.06,,,0.17,meteohub,2013-01-09 10:33:00,
2013-01-09 04:38:00,67.1,67.1,29.77,SSW,201,2.0,7.0,100,0.06,,,0.17,meteohub,2013-01-09 10:38:00,
2013-01-09 04:43:00,66.9,66.9,29.78,WNW,298,1.0,5.0,100,0.06,,,0.17,meteohub,2013-01-09 10:43:00,
2013-01-09 04:48:00,66.9,66.9,29.78,SW,219,1.0,6.0,100,0.06,,,0.17,meteohub,2013-01-09 10:48:00,
2013-01-09 04:53:00,66.9,66.9,29.79,WNW,302,2.0,6.0,100,0.06,,,0.17,meteohub,2013-01-09 10:53:00,
2013-01-09 04:58:00,66.9,66.9,29.79,WSW,243,1.0,6.0,100,0.07,,,0.18,meteohub,2013-01-09 10:58:00,
2013-01-09 05:03:00,66.9,66.9,29.78,WSW,246,1.0,6.0,100,0.07,,,0.18,meteohub,2013-01-09 11:03:00,
2013-01-09 05:08:00,66.9,66.9,29.78,SSW,193,0.0,6.0,100,0.07,,,0.18,meteohub,2013-01-09 11:08:00,
2013-01-09 05:13:00,66.9,66.9,29.78,West,277,2.0,3.0,100,0.07,,,0.18,meteohub,2013-01-09 11:13:00,
2013-01-09 05:18:00,66.9,66.9,29.78,WSW,257,12.0,12.0,100,0.07,,,0.18,meteohub,2013-01-09 11:18:00,
2013-01-09 05:23:00,65.5,65.5,29.79,West,271,10.0,12.0,100,0.07,,,0.18,meteohub,2013-01-09 11:23:00,
2013-01-09 05:28:00,63.9,63.5,29.78,WNW,283,9.0,15.0,99,0.03,,,0.18,meteohub,2013-01-09 11:28:00,
2013-01-09 05:33:00,63.5,63.1,29.78,West,277,9.0,15.0,99,0.01,,,0.18,meteohub,2013-01-09 11:33:00,
2013-01-09 05:38:00,63.3,63.0,29.79,West,276,9.0,14.0,99,0.01,,,0.18,meteohub,2013-01-09 11:38:00,
2013-01-09 05:43:00,63.0,62.6,29.80,WNW,285,10.0,14.0,99,0.01,,,0.18,meteohub,2013-01-09 11:43:00,
2013-01-09 05:48:00,62.4,62.1,29.80,WNW,284,12.0,15.0,99,0.01,,,0.18,meteohub,2013-01-09 11:48:00,
2013-01-09 05:53:00,62.2,61.9,29.80,WNW,293,11.0,15.0,99,0.01,,,0.18,meteohub,2013-01-09 11:53:00,
2013-01-09 05:58:00,62.1,61.7,29.80,NW,314,4.0,15.0,99,0.00,,,0.18,meteohub,2013-01-09 11:58:00,
2013-01-09 06:03:00,61.9,61.5,29.80,WNW,283,7.0,17.0,99,0.00,,,0.18,meteohub,2013-01-09 12:03:00,
2013-01-09 06:08:00,61.9,61.5,29.81,WNW,284,4.0,17.0,99,0.00,,,0.18,meteohub,2013-01-09 12:08:00,
2013-01-09 06:13:00,61.5,61.2,29.80,NW,316,7.0,13.0,99,0.00,,,0.18,meteohub,2013-01-09 12:13:00,
2013-01-09 06:18:00,61.5,61.2,29.80,WNW,292,8.0,13.0,99,0.00,,,0.18,meteohub,2013-01-09 12:18:00,
2013-01-09 06:23:00,61.5,61.2,29.80,NW,314,12.0,13.0,99,0.00,,,0.18,meteohub,2013-01-09 12:23:00,
2013-01-09 06:28:00,61.5,61.2,29.80,NW,304,8.0,14.0,99,0.00,,,0.18,meteohub,2013-01-09 12:28:00,
2013-01-09 06:33:00,61.5,61.2,29.80,WNW,291,6.0,14.0,99,0.00,,,0.18,meteohub,2013-01-09 12:33:00,
2013-01-09 06:38:00,61.5,61.2,29.80,NW,310,3.0,14.0,99,0.00,,,0.18,meteohub,2013-01-09 12:38:00,
2013-01-09 06:43:00,61.7,61.3,29.82,WNW,292,4.0,11.0,99,0.00,,,0.18,meteohub,2013-01-09 12:43:00,
2013-01-09 06:48:00,61.7,61.3,29.82,West,276,7.0,9.0,99,0.00,,,0.18,meteohub,2013-01-09 12:48:00,
2013-01-09 06:53:00,61.5,61.2,29.82,NW,306,6.0,12.0,99,0.00,,,0.18,meteohub,2013-01-09 12:53:00,
2013-01-09 06:58:00,60.6,60.3,29.83,West,270,10.0,12.0,99,0.00,,,0.18,meteohub,2013-01-09 12:58:00,
2013-01-09 07:03:00,59.5,59.2,29.84,WNW,302,18.0,18.0,99,0.00,,,0.18,meteohub,2013-01-09 13:03:00,
2013-01-09 07:08:00,59.2,58.8,29.85,NW,319,8.0,20.0,99,0.01,,,0.19,meteohub,2013-01-09 13:08:00,
2013-01-09 07:13:00,58.8,58.5,29.85,NW,322,9.0,22.0,99,0.01,,,0.19,meteohub,2013-01-09 13:13:00,
2013-01-09 07:18:00,58.6,58.3,29.84,NW,312,9.0,22.0,99,0.01,,,0.19,meteohub,2013-01-09 13:18:00,
2013-01-09 07:23:00,58.5,58.1,29.84,NW,316,11.0,22.0,99,0.01,,,0.19,meteohub,2013-01-09 13:23:00,
2013-01-09 07:28:00,58.5,58.1,29.84,NW,304,12.0,21.0,99,0.01,,,0.19,meteohub,2013-01-09 13:28:00,
2013-01-09 07:34:00,58.3,57.9,29.84,WNW,303,9.0,21.0,99,0.01,,,0.19,meteohub,2013-01-09 13:34:00,
2013-01-09 07:39:00,58.3,57.9,29.84,NW,312,12.0,19.0,99,0.01,,,0.19,meteohub,2013-01-09 13:39:00,
2013-01-09 07:44:00,58.3,57.9,29.85,West,278,8.0,17.0,99,0.01,,,0.19,meteohub,2013-01-09 13:44:00,
2013-01-09 07:49:00,58.3,57.9,29.86,NW,304,9.0,17.0,99,0.01,,,0.19,meteohub,2013-01-09 13:49:00,
2013-01-09 07:54:00,58.5,58.1,29.86,NW,323,5.0,17.0,99,0.01,,,0.19,meteohub,2013-01-09 13:54:00,
2013-01-09 07:59:00,58.3,57.9,29.86,NW,317,5.0,17.0,99,0.01,,,0.19,meteohub,2013-01-09 13:59:00,
2013-01-09 08:04:00,58.3,57.9,29.86,WSW,252,5.0,12.0,99,0.01,,,0.19,meteohub,2013-01-09 14:04:00,
2013-01-09 08:09:00,58.3,57.9,29.87,NW,310,11.0,14.0,99,0.00,,,0.19,meteohub,2013-01-09 14:09:00,
2013-01-09 08:14:00,58.3,57.9,29.88,NW,307,10.0,14.0,99,0.01,,,0.20,meteohub,2013-01-09 14:14:00,
2013-01-09 08:19:00,58.3,57.9,29.86,WNW,300,7.0,15.0,99,0.02,,,0.21,meteohub,2013-01-09 14:19:00,
2013-01-09 08:24:00,58.3,57.9,29.87,WNW,297,4.0,15.0,99,0.02,,,0.21,meteohub,2013-01-09 14:24:00,
2013-01-09 08:29:00,58.3,57.9,29.88,NW,316,7.0,16.0,99,0.02,,,0.21,meteohub,2013-01-09 14:29:00,
2013-01-09 08:34:00,58.3,57.9,29.89,WNW,294,5.0,16.0,99,0.03,,,0.22,meteohub,2013-01-09 14:34:00,
2013-01-09 08:39:00,58.3,57.9,29.90,NW,308,5.0,14.0,99,0.03,,,0.22,meteohub,2013-01-09 14:39:00,
2013-01-09 08:44:00,58.1,57.7,29.90,NW,306,9.0,12.0,99,0.03,,,0.22,meteohub,2013-01-09 14:44:00,
2013-01-09 08:49:00,58.1,57.7,29.90,NW,314,7.0,12.0,99,0.04,,,0.23,meteohub,2013-01-09 14:49:00,
2013-01-09 08:54:00,58.1,57.7,29.91,WNW,297,5.0,12.0,99,0.04,,,0.23,meteohub,2013-01-09 14:54:00,
2013-01-09 08:59:00,58.3,57.9,29.92,WNW,298,6.0,12.0,99,0.04,,,0.23,meteohub,2013-01-09 14:59:00,
2013-01-09 09:04:00,58.3,57.9,29.92,WNW,299,6.0,12.0,99,0.04,,,0.23,meteohub,2013-01-09 15:04:00,
2013-01-09 09:09:00,58.3,57.9,29.92,NW,306,8.0,12.0,99,0.03,,,0.23,meteohub,2013-01-09 15:09:00,
2013-01-09 09:15:00,58.3,57.9,29.92,NW,309,5.0,10.0,99,0.03,,,0.24,meteohub,2013-01-09 15:15:00,
2013-01-09 09:20:00,58.3,57.9,29.90,NW,312,12.0,12.0,99,0.03,,,0.24,meteohub,2013-01-09 15:20:00,
2013-01-09 09:25:00,58.1,57.7,29.91,WNW,301,5.0,12.0,99,0.03,,,0.24,meteohub,2013-01-09 15:25:00,
2013-01-09 09:30:00,58.1,57.7,29.91,WNW,300,5.0,14.0,99,0.02,,,0.24,meteohub,2013-01-09 15:30:00,
2013-01-09 09:35:00,58.1,57.7,29.91,NW,326,5.0,14.0,99,0.02,,,0.24,meteohub,2013-01-09 15:35:00,
2013-01-09 09:40:00,57.9,57.6,29.90,West,278,8.0,13.0,99,0.02,,,0.24,meteohub,2013-01-09 15:40:00,
2013-01-09 09:45:00,57.9,57.6,29.91,NNW,346,8.0,12.0,99,0.02,,,0.25,meteohub,2013-01-09 15:45:00,
2013-01-09 09:50:00,57.9,57.6,29.90,NNW,332,6.0,12.0,99,0.02,,,0.25,meteohub,2013-01-09 15:50:00,
2013-01-09 09:55:00,57.9,57.6,29.89,North,354,12.0,14.0,99,0.02,,,0.25,meteohub,2013-01-09 15:55:00,
2013-01-09 10:00:00,57.9,57.6,29.88,NW,314,10.0,14.0,99,0.02,,,0.25,meteohub,2013-01-09 16:00:00,
2013-01-09 10:05:00,57.9,57.6,29.87,NNE,15,7.0,14.0,99,0.03,,,0.26,meteohub,2013-01-09 16:05:00,
2013-01-09 10:10:00,57.9,57.6,29.87,NNW,343,8.0,14.0,99,0.02,,,0.26,meteohub,2013-01-09 16:10:00,
2013-01-09 10:15:00,58.3,57.9,29.86,NNE,20,9.0,14.0,99,0.02,,,0.26,meteohub,2013-01-09 16:15:00,
2013-01-09 10:21:00,58.3,57.9,29.86,NNE,23,8.0,14.0,99,0.02,,,0.26,meteohub,2013-01-09 16:21:00,
2013-01-09 10:26:00,58.3,57.9,29.85,NNE,17,12.0,16.0,99,0.02,,,0.26,meteohub,2013-01-09 16:26:00,
2013-01-09 10:31:00,58.3,57.9,29.87,NNE,18,10.0,16.0,99,0.02,,,0.26,meteohub,2013-01-09 16:31:00,
2013-01-09 10:36:00,58.5,58.1,29.87,North,6,12.0,16.0,99,0.02,,,0.26,meteohub,2013-01-09 16:36:00,
2013-01-09 10:41:00,58.6,58.3,29.87,NNE,19,4.0,15.0,99,0.01,,,0.26,meteohub,2013-01-09 16:41:00,
2013-01-09 10:46:00,58.6,58.3,29.88,NNE,19,5.0,15.0,99,0.01,,,0.26,meteohub,2013-01-09 16:46:00,
2013-01-09 10:51:00,58.6,58.3,29.88,North,6,7.0,15.0,99,0.01,,,0.26,meteohub,2013-01-09 16:51:00,
2013-01-09 10:56:00,58.8,58.5,29.86,NE,37,11.0,15.0,99,0.01,,,0.26,meteohub,2013-01-09 16:56:00,
2013-01-09 11:01:00,59.0,58.6,29.87,NNE,30,5.0,15.0,99,0.01,,,0.26,meteohub,2013-01-09 17:01:00,
2013-01-09 11:06:00,59.2,58.8,29.90,North,4,3.0,15.0,99,0.00,,,0.26,meteohub,2013-01-09 17:06:00,
2013-01-09 11:11:00,59.2,58.8,29.91,NNE,19,4.0,14.0,99,0.00,,,0.26,meteohub,2013-01-09 17:11:00,
2013-01-09 11:16:00,59.2,58.8,29.90,North,355,5.0,10.0,99,0.00,,,0.26,meteohub,2013-01-09 17:16:00,
2013-01-09 11:21:00,59.2,58.8,29.89,NE,41,2.0,10.0,99,0.01,,,0.27,meteohub,2013-01-09 17:21:00,
2013-01-09 11:26:00,59.4,59.4,29.89,NE,56,3.0,10.0,100,0.01,,,0.27,meteohub,2013-01-09 17:26:00,
2013-01-09 11:31:00,59.4,59.4,29.86,NE,49,3.0,10.0,100,0.03,,,0.29,meteohub,2013-01-09 17:31:00,
2013-01-09 11:36:00,59.2,59.2,29.84,ENE,60,3.0,8.0,100,0.04,,,0.30,meteohub,2013-01-09 17:36:00,
2013-01-09 11:41:00,59.4,59.4,29.82,NE,43,12.0,12.0,100,0.04,,,0.30,meteohub,2013-01-09 17:41:00,
2013-01-09 11:46:00,59.4,59.4,29.82,ENE,67,4.0,13.0,100,0.04,,,0.30,meteohub,2013-01-09 17:46:00,
2013-01-09 11:51:00,59.7,59.7,29.83,NNE,20,0.0,13.0,100,0.04,,,0.30,meteohub,2013-01-09 17:51:00,
2013-01-09 11:56:00,60.1,60.1,29.85,NE,37,2.0,13.0,100,0.04,,,0.30,meteohub,2013-01-09 17:56:00,
2013-01-09 12:01:00,60.1,60.1,29.85,NNE,32,2.0,9.0,100,0.04,,,0.30,meteohub,2013-01-09 18:01:00,
2013-01-09 12:06:00,60.3,60.3,29.85,NNW,339,0.0,6.0,100,0.04,,,0.30,meteohub,2013-01-09 18:06:00,
2013-01-09 12:11:00,60.4,60.4,29.86,WSW,257,10.0,10.0,100,0.04,,,0.30,meteohub,2013-01-09 18:11:00,
2013-01-09 12:16:00,61.0,61.0,29.87,North,350,1.0,10.0,100,0.04,,,0.30,meteohub,2013-01-09 18:16:00,
2013-01-09 12:21:00,61.0,61.0,29.87,WNW,294,1.0,10.0,100,0.03,,,0.30,meteohub,2013-01-09 18:21:00,
2013-01-09 12:26:00,60.6,60.6,29.86,NW,312,2.0,10.0,100,0.02,,,0.30,meteohub,2013-01-09 18:26:00,
2013-01-09 12:31:00,60.6,60.6,29.86,West,278,6.0,6.0,100,0.01,,,0.30,meteohub,2013-01-09 18:31:00,
2013-01-09 12:36:00,60.6,60.6,29.86,NE,49,2.0,11.0,100,0.00,,,0.30,meteohub,2013-01-09 18:36:00,
2013-01-09 12:41:00,60.6,60.6,29.87,SW,221,3.0,11.0,100,0.00,,,0.30,meteohub,2013-01-09 18:41:00,
2013-01-09 12:42:00,60.6,60.6,29.87,NW,322,1.0,11.0,100,0.00,,,0.30,meteohub,2013-01-09 18:42:00,
2013-01-09 12:44:00,60.8,60.8,29.87,NW,323,1.0,11.0,100,0.00,,,0.30,meteohub,2013-01-09 18:44:00,
2013-01-09 12:45:00,60.8,60.8,29.87,NW,323,1.0,11.0,100,0.00,,,0.30,meteohub,2013-01-09 18:45:00,
2013-01-09 12:46:00,60.6,60.6,29.87,WNW,284,2.0,11.0,100,0.00,,,0.30,meteohub,2013-01-09 18:46:00,
2013-01-09 12:48:00,60.4,60.4,29.86,WSW,249,5.0,11.0,100,0.00,,,0.30,meteohub,2013-01-09 18:48:00,
2013-01-09 12:49:00,60.4,60.4,29.86,SW,222,3.0,11.0,100,0.00,,,0.30,meteohub,2013-01-09 18:49:00,
2013-01-09 12:54:00,60.6,60.6,29.86,WSW,254,7.0,9.0,100,0.00,,,0.30,meteohub,2013-01-09 18:54:00,
2013-01-09 12:59:00,60.6,60.6,29.85,WSW,250,7.0,11.0,100,0.00,,,0.30,meteohub,2013-01-09 18:59:00,
2013-01-09 13:04:00,60.6,60.6,29.85,West,276,11.0,12.0,100,0.00,,,0.30,meteohub,2013-01-09 19:04:00,
2013-01-09 13:09:00,60.8,60.8,29.85,WSW,238,7.0,16.0,100,0.00,,,0.30,meteohub,2013-01-09 19:09:00,
2013-01-09 13:14:00,60.6,60.6,29.84,West,277,12.0,16.0,100,0.00,,,0.30,meteohub,2013-01-09 19:14:00,
2013-01-09 13:19:00,61.0,61.0,29.84,South,184,10.0,16.0,100,0.00,,,0.30,meteohub,2013-01-09 19:19:00,
2013-01-09 13:24:00,61.3,61.3,29.83,SSW,197,6.0,16.0,100,0.00,,,0.30,meteohub,2013-01-09 19:24:00,
2013-01-09 13:29:00,61.3,61.3,29.83,West,264,5.0,16.0,100,0.00,,,0.30,meteohub,2013-01-09 19:29:00,
2013-01-09 13:34:00,61.9,61.9,29.83,SW,229,6.0,14.0,100,0.00,,,0.30,meteohub,2013-01-09 19:34:00,
2013-01-09 13:39:00,61.3,61.3,29.84,SE,137,2.0,14.0,100,0.00,,,0.30,meteohub,2013-01-09 19:39:00,
2013-01-09 13:45:00,61.5,61.5,29.84,SW,226,5.0,14.0,100,0.00,,,0.30,meteohub,2013-01-09 19:45:00,
2013-01-09 13:49:00,61.5,61.5,29.85,WSW,252,7.0,11.0,100,0.00,,,0.30,meteohub,2013-01-09 19:49:00,
2013-01-09 13:55:00,61.3,61.0,29.85,WSW,257,5.0,13.0,99,0.00,,,0.30,meteohub,2013-01-09 19:55:00,
2013-01-09 14:00:00,61.2,60.8,29.85,NNW,328,1.0,14.0,99,0.00,,,0.30,meteohub,2013-01-09 20:00:00,
2013-01-09 14:05:00,61.3,61.0,29.85,West,276,7.0,14.0,99,0.00,,,0.30,meteohub,2013-01-09 20:05:00,
2013-01-09 14:10:00,61.9,61.5,29.85,NNE,19,1.0,14.0,99,0.00,,,0.30,meteohub,2013-01-09 20:10:00,
2013-01-09 14:15:00,62.1,61.7,29.83,ENE,59,2.0,11.0,99,0.00,,,0.30,meteohub,2013-01-09 20:15:00,
2013-01-09 14:20:00,62.2,61.9,29.85,SW,235,3.0,11.0,99,0.00,,,0.30,meteohub,2013-01-09 20:20:00,
2013-01-09 14:25:00,62.2,61.9,29.84,West,259,6.0,10.0,99,0.00,,,0.30,meteohub,2013-01-09 20:25:00,
2013-01-09 14:30:00,62.6,62.2,29.85,West,264,6.0,11.0,99,0.00,,,0.30,meteohub,2013-01-09 20:30:00,
2013-01-09 14:35:00,62.8,62.4,29.84,West,266,10.0,11.0,99,0.00,,,0.30,meteohub,2013-01-09 20:35:00,
2013-01-09 14:41:00,63.1,62.1,29.84,West,270,10.0,14.0,96,0.00,,,0.30,meteohub,2013-01-09 20:41:00,
2013-01-09 14:46:00,63.9,62.1,29.84,West,278,3.0,14.0,94,0.00,,,0.30,meteohub,2013-01-09 20:46:00,
2013-01-09 14:51:00,64.0,61.7,29.84,WSW,255,3.0,14.0,92,0.00,,,0.30,meteohub,2013-01-09 20:51:00,
2013-01-09 14:56:00,64.2,61.9,29.85,WSW,248,1.0,13.0,92,0.00,,,0.30,meteohub,2013-01-09 20:56:00,
2013-01-09 15:01:00,64.2,61.2,29.85,West,264,6.0,8.0,90,0.00,,,0.30,meteohub,2013-01-09 21:01:00,
2013-01-09 15:06:00,64.2,61.0,29.86,WSW,245,6.0,10.0,89,0.00,,,0.30,meteohub,2013-01-09 21:06:00,
2013-01-09 15:11:00,64.2,61.2,29.87,WNW,290,6.0,11.0,90,0.00,,,0.30,meteohub,2013-01-09 21:11:00,
2013-01-09 15:16:00,64.6,61.3,29.86,West,277,6.0,11.0,89,0.00,,,0.30,meteohub,2013-01-09 21:16:00,
2013-01-09 15:21:00,64.8,61.5,29.87,NW,311,1.0,10.0,89,0.00,,,0.30,meteohub,2013-01-09 21:21:00,
2013-01-09 15:26:00,64.8,61.2,29.87,SW,232,1.0,9.0,88,0.00,,,0.30,meteohub,2013-01-09 21:26:00,
2013-01-09 15:31:00,64.9,61.3,29.88,SSE,150,2.0,8.0,88,0.00,,,0.30,meteohub,2013-01-09 21:31:00,
2013-01-09 15:36:00,65.1,60.8,29.88,West,266,6.0,8.0,86,0.00,,,0.30,meteohub,2013-01-09 21:36:00,
2013-01-09 15:41:00,64.9,61.0,29.88,WNW,285,4.0,10.0,87,0.00,,,0.30,meteohub,2013-01-09 21:41:00,
2013-01-09 15:46:00,64.8,60.8,29.88,West,260,7.0,12.0,87,0.00,,,0.30,meteohub,2013-01-09 21:46:00,
2013-01-09 15:51:00,64.8,60.8,29.88,West,262,7.0,12.0,87,0.00,,,0.30,meteohub,2013-01-09 21:51:00,
2013-01-09 15:56:00,64.8,60.8,29.89,West,278,8.0,12.0,87,0.00,,,0.30,meteohub,2013-01-09 21:56:00,
2013-01-09 16:01:00,64.6,60.6,29.89,SW,235,2.0,11.0,87,0.00,,,0.30,meteohub,2013-01-09 22:01:00,
2013-01-09 16:06:00,64.8,60.4,29.90,West,266,6.0,11.0,86,0.00,,,0.30,meteohub,2013-01-09 22:06:00,
2013-01-09 16:11:00,64.8,60.4,29.90,South,186,2.0,11.0,86,0.00,,,0.30,meteohub,2013-01-09 22:11:00,
2013-01-09 16:17:00,64.8,60.4,29.90,WSW,239,7.0,11.0,86,0.00,,,0.30,meteohub,2013-01-09 22:17:00,
2013-01-09 16:22:00,64.8,60.4,29.90,WSW,246,3.0,9.0,86,0.00,,,0.30,meteohub,2013-01-09 22:22:00,
2013-01-09 16:27:00,64.9,60.6,29.90,SW,233,0.0,9.0,86,0.00,,,0.30,meteohub,2013-01-09 22:27:00,
2013-01-09 16:32:00,64.9,60.6,29.90,West,264,2.0,9.0,86,0.00,,,0.30,meteohub,2013-01-09 22:32:00,
2013-01-09 16:37:00,64.8,60.4,29.90,SW,235,2.0,6.0,86,0.00,,,0.30,meteohub,2013-01-09 22:37:00,
2013-01-09 16:42:00,64.6,60.3,29.90,WNW,283,3.0,5.0,86,0.00,,,0.30,meteohub,2013-01-09 22:42:00,
2013-01-09 16:47:00,64.4,60.1,29.90,WNW,292,2.0,5.0,86,0.00,,,0.30,meteohub,2013-01-09 22:47:00,
2013-01-09 16:52:00,64.4,60.4,29.90,West,278,3.0,5.0,87,0.00,,,0.30,meteohub,2013-01-09 22:52:00,
2013-01-09 16:57:00,64.4,60.4,29.90,West,278,3.0,5.0,87,0.00,,,0.30,meteohub,2013-01-09 22:57:00,
2013-01-09 17:02:00,64.4,60.1,29.90,West,263,5.0,6.0,86,0.00,,,0.30,meteohub,2013-01-09 23:02:00,
2013-01-09 17:07:00,64.4,60.1,29.90,West,281,5.0,6.0,86,0.00,,,0.30,meteohub,2013-01-09 23:07:00,
2013-01-09 17:12:00,64.4,60.4,29.90,West,278,4.0,6.0,87,0.00,,,0.30,meteohub,2013-01-09 23:12:00,
2013-01-09 17:17:00,64.8,60.8,29.90,WSW,248,3.0,6.0,87,0.00,,,0.30,meteohub,2013-01-09 23:17:00,
2013-01-09 17:22:00,65.1,60.8,29.91,West,259,1.0,6.0,86,0.00,,,0.30,meteohub,2013-01-09 23:22:00,
2013-01-09 17:27:00,65.5,60.8,29.91,West,269,1.0,6.0,85,0.00,,,0.30,meteohub,2013-01-09 23:27:00,
2013-01-09 17:32:00,65.5,60.8,29.91,WNW,293,4.0,5.0,85,0.00,,,0.30,meteohub,2013-01-09 23:32:00,
2013-01-09 17:37:00,65.1,60.4,29.91,WSW,252,3.0,4.0,85,0.00,,,0.30,meteohub,2013-01-09 23:37:00,
2013-01-09 17:42:00,65.1,60.8,29.91,West,266,2.0,4.0,86,0.00,,,0.30,meteohub,2013-01-09 23:42:00,
2013-01-09 17:47:00,64.9,61.0,29.91,WSW,243,0.0,5.0,87,0.00,,,0.30,meteohub,2013-01-09 23:47:00,
2013-01-09 17:52:00,64.6,60.6,29.92,SW,236,2.0,5.0,87,0.00,,,0.30,meteohub,2013-01-09 23:52:00,
2013-01-09 17:57:00,64.6,60.6,29.92,West,280,2.0,5.0,87,0.00,,,0.30,meteohub,2013-01-09 23:57:00,
2013-01-09 18:02:00,64.4,60.8,29.92,West,281,3.0,4.0,88,0.00,,,0.30,meteohub,2013-01-10 00:02:00,
2013-01-09 18:07:00,64.2,60.3,29.92,West,281,2.0,6.0,87,0.00,,,0.00,meteohub,2013-01-10 00:07:00,
2013-01-09 18:12:00,64.0,60.1,29.93,WNW,292,3.0,7.0,87,0.00,,,0.00,meteohub,2013-01-10 00:12:00,
2013-01-09 18:17:00,64.0,59.7,29.93,WNW,293,3.0,7.0,86,0.00,,,0.00,meteohub,2013-01-10 00:17:00,
2013-01-09 18:22:00,63.9,59.5,29.94,WNW,300,1.0,7.0,86,0.00,,,0.00,meteohub,2013-01-10 00:22:00,
2013-01-09 18:27:00,63.9,59.9,29.94,SW,232,4.0,6.0,87,0.00,,,0.00,meteohub,2013-01-10 00:27:00,
2013-01-09 18:32:00,63.9,59.5,29.94,WNW,288,2.0,6.0,86,0.00,,,0.00,meteohub,2013-01-10 00:32:00,
2013-01-09 18:37:00,63.7,59.7,29.94,WNW,302,4.0,5.0,87,0.00,,,0.00,meteohub,2013-01-10 00:37:00,
2013-01-09 18:42:00,63.5,59.5,29.94,West,281,2.0,5.0,87,0.00,,,0.00,meteohub,2013-01-10 00:42:00,
2013-01-09 18:47:00,63.5,59.5,29.94,NW,315,1.0,4.0,87,0.00,,,0.00,meteohub,2013-01-10 00:47:00,
2013-01-09 18:52:00,63.3,59.4,29.95,WNW,290,2.0,5.0,87,0.00,,,0.00,meteohub,2013-01-10 00:52:00,
2013-01-09 18:57:00,63.3,59.4,29.95,WNW,301,3.0,5.0,87,0.00,,,0.00,meteohub,2013-01-10 00:57:00,
2013-01-09 19:02:00,63.3,59.4,29.95,WNW,297,2.0,4.0,87,0.00,,,0.00,meteohub,2013-01-10 01:02:00,
2013-01-09 19:07:00,63.1,59.2,29.96,West,276,3.0,5.0,87,0.00,,,0.00,meteohub,2013-01-10 01:07:00,
2013-01-09 19:12:00,63.0,59.0,29.95,WNW,298,5.0,5.0,87,0.00,,,0.00,meteohub,2013-01-10 01:12:00,
2013-01-09 19:17:00,62.8,59.2,29.96,WNW,294,3.0,5.0,88,0.00,,,0.00,meteohub,2013-01-10 01:17:00,
2013-01-09 19:22:00,62.6,59.0,29.95,WNW,300,3.0,5.0,88,0.00,,,0.00,meteohub,2013-01-10 01:22:00,
2013-01-09 19:27:00,62.4,58.8,29.95,WNW,290,4.0,5.0,88,0.00,,,0.00,meteohub,2013-01-10 01:27:00,
2013-01-09 19:32:00,62.2,58.6,29.96,WNW,298,3.0,6.0,88,0.00,,,0.00,meteohub,2013-01-10 01:32:00,
2013-01-09 19:37:00,62.1,58.8,29.96,West,262,3.0,6.0,89,0.00,,,0.00,meteohub,2013-01-10 01:37:00,
2013-01-09 19:43:00,61.9,58.6,29.96,WNW,284,0.0,6.0,89,0.00,,,0.00,meteohub,2013-01-10 01:43:00,
2013-01-09 19:48:00,61.7,58.5,29.95,WNW,285,2.0,6.0,89,0.00,,,0.00,meteohub,2013-01-10 01:48:00,
2013-01-09 19:53:00,61.5,58.3,29.96,WNW,288,2.0,4.0,89,0.00,,,0.00,meteohub,2013-01-10 01:53:00,
2013-01-09 19:58:00,61.3,58.5,29.96,West,280,2.0,4.0,90,0.00,,,0.00,meteohub,2013-01-10 01:58:00,
2013-01-09 20:03:00,61.3,58.5,29.97,West,276,1.0,4.0,90,0.00,,,0.00,meteohub,2013-01-10 02:03:00,
2013-01-09 20:08:00,61.2,58.3,29.98,WSW,245,0.0,4.0,90,0.00,,,0.00,meteohub,2013-01-10 02:08:00,
2013-01-09 20:13:00,61.0,58.1,29.97,WSW,248,1.0,4.0,90,0.00,,,0.00,meteohub,2013-01-10 02:13:00,
2013-01-09 20:18:00,60.8,58.1,29.96,WNW,298,3.0,3.0,91,0.00,,,0.00,meteohub,2013-01-10 02:18:00,
2013-01-09 20:23:00,60.6,57.9,29.96,WNW,302,3.0,3.0,91,0.00,,,0.00,meteohub,2013-01-10 02:23:00,
2013-01-09 20:28:00,60.6,57.9,29.96,WNW,290,2.0,5.0,91,0.00,,,0.00,meteohub,2013-01-10 02:28:00,
2013-01-09 20:33:00,60.4,57.7,29.96,WNW,288,1.0,5.0,91,0.00,,,0.00,meteohub,2013-01-10 02:33:00,
2013-01-09 20:38:00,60.3,57.6,29.96,WNW,288,0.0,5.0,91,0.00,,,0.00,meteohub,2013-01-10 02:38:00,
2013-01-09 20:43:00,59.9,57.6,29.97,WNW,286,1.0,3.0,92,0.00,,,0.00,meteohub,2013-01-10 02:43:00,
2013-01-09 20:48:00,59.7,57.4,29.97,WNW,288,0.0,2.0,92,0.00,,,0.00,meteohub,2013-01-10 02:48:00,
2013-01-09 20:53:00,59.7,57.7,29.97,WNW,288,0.0,1.0,93,0.00,,,0.00,meteohub,2013-01-10 02:53:00,
2013-01-09 20:58:00,59.4,57.0,29.97,WNW,288,1.0,1.0,92,0.00,,,0.00,meteohub,2013-01-10 02:58:00,
2013-01-09 21:03:00,59.2,57.2,29.97,WNW,286,0.0,1.0,93,0.00,,,0.00,meteohub,2013-01-10 03:03:00,
2013-01-09 21:08:00,58.8,56.8,29.97,WNW,288,0.0,1.0,93,0.00,,,0.00,meteohub,2013-01-10 03:08:00,
2013-01-09 21:13:00,58.5,56.7,29.97,WNW,287,0.0,1.0,94,0.00,,,0.00,meteohub,2013-01-10 03:13:00,
2013-01-09 21:18:00,58.3,56.5,29.97,WNW,288,1.0,1.0,94,0.00,,,0.00,meteohub,2013-01-10 03:18:00,
2013-01-09 21:23:00,58.5,57.0,29.97,WNW,288,1.0,1.0,95,0.00,,,0.00,meteohub,2013-01-10 03:23:00,
2013-01-09 21:28:00,58.3,56.5,29.97,WNW,288,0.0,2.0,94,0.00,,,0.00,meteohub,2013-01-10 03:28:00,
2013-01-09 21:33:00,58.3,56.5,29.97,WNW,288,0.0,2.0,94,0.00,,,0.00,meteohub,2013-01-10 03:33:00,
2013-01-09 21:38:00,58.3,56.5,29.98,NNE,33,0.0,2.0,94,0.00,,,0.00,meteohub,2013-01-10 03:38:00,
2013-01-09 21:43:00,58.5,56.7,29.98,ESE,103,1.0,1.0,94,0.00,,,0.00,meteohub,2013-01-10 03:43:00,
2013-01-09 21:48:00,58.3,56.5,29.98,ESE,103,0.0,2.0,94,0.00,,,0.00,meteohub,2013-01-10 03:48:00,
2013-01-09 21:53:00,57.9,56.1,29.98,WSW,243,0.0,2.0,94,0.00,,,0.00,meteohub,2013-01-10 03:53:00,
2013-01-09 21:58:00,57.9,56.5,29.98,WSW,243,0.0,3.0,95,0.00,,,0.00,meteohub,2013-01-10 03:58:00,
2013-01-09 22:03:00,57.4,55.6,29.98,East,101,0.0,5.0,94,0.00,,,0.00,meteohub,2013-01-10 04:03:00,
2013-01-09 22:08:00,57.2,55.4,29.98,ESE,121,1.0,5.0,94,0.00,,,0.00,meteohub,2013-01-10 04:08:00,
2013-01-09 22:13:00,57.0,55.2,29.99,SE,134,2.0,5.0,94,0.00,,,0.00,meteohub,2013-01-10 04:13:00,
2013-01-09 22:18:00,56.8,55.4,29.99,SSE,167,1.0,3.0,95,0.00,,,0.00,meteohub,2013-01-10 04:18:00,
2013-01-09 22:23:00,56.7,55.2,29.99,ESE,114,3.0,3.0,95,0.00,,,0.00,meteohub,2013-01-10 04:23:00,
2013-01-09 22:28:00,56.7,55.6,29.98,SSE,160,1.0,3.0,96,0.00,,,0.00,meteohub,2013-01-10 04:28:00,
2013-01-09 22:33:00,56.7,55.6,29.99,SSE,159,0.0,3.0,96,0.00,,,0.00,meteohub,2013-01-10 04:33:00,
2013-01-09 22:38:00,56.3,54.9,29.99,WSW,246,0.0,3.0,95,0.00,,,0.00,meteohub,2013-01-10 04:38:00,
2013-01-09 22:43:00,56.1,54.7,29.98,WSW,246,0.0,4.0,95,0.00,,,0.00,meteohub,2013-01-10 04:43:00,
2013-01-09 22:48:00,56.1,55.0,29.99,WSW,250,0.0,4.0,96,0.00,,,0.00,meteohub,2013-01-10 04:48:00,
2013-01-09 22:53:00,55.9,54.9,29.99,SSW,194,1.0,4.0,96,0.00,,,0.00,meteohub,2013-01-10 04:53:00,
2013-01-09 22:58:00,56.1,55.0,29.97,WSW,248,0.0,2.0,96,0.00,,,0.00,meteohub,2013-01-10 04:58:00,
2013-01-09 23:00:00,55.9,54.9,29.97,WSW,248,0.0,2.0,96,0.00,,,0.00,meteohub,2013-01-10 05:00:00,
2013-01-09 23:01:00,55.9,54.9,29.97,WSW,249,1.0,3.0,96,0.00,,,0.00,meteohub,2013-01-10 05:01:00,
2013-01-09 23:02:00,56.1,55.0,29.97,WSW,257,1.0,3.0,96,0.00,,,0.00,meteohub,2013-01-10 05:02:00,
2013-01-09 23:07:00,56.1,55.0,29.98,WSW,257,1.0,3.0,96,0.00,,,0.00,meteohub,2013-01-10 05:07:00,
2013-01-09 23:12:00,56.1,55.0,29.98,WSW,252,0.0,3.0,96,0.00,,,0.00,meteohub,2013-01-10 05:12:00,
2013-01-09 23:17:00,56.1,55.0,29.98,WNW,284,1.0,2.0,96,0.00,,,0.00,meteohub,2013-01-10 05:17:00,
2013-01-09 23:21:00,56.1,55.0,29.99,West,281,3.0,3.0,96,0.00,,,0.00,meteohub,2013-01-10 05:21:00,
2013-01-09 23:26:00,56.1,55.0,29.99,WNW,284,2.0,3.0,96,0.00,,,0.00,meteohub,2013-01-10 05:26:00,
2013-01-09 23:31:00,56.1,55.0,29.99,West,276,1.0,4.0,96,0.00,,,0.00,meteohub,2013-01-10 05:31:00,
2013-01-09 23:36:00,56.1,55.0,29.99,West,274,2.0,4.0,96,0.00,,,0.00,meteohub,2013-01-10 05:36:00,
2013-01-09 23:42:00,56.1,55.0,30.00,West,274,1.0,4.0,96,0.00,,,0.00,meteohub,2013-01-10 05:42:00,
2013-01-09 23:47:00,56.1,55.0,30.00,West,272,0.0,3.0,96,0.00,,,0.00,meteohub,2013-01-10 05:47:00,
2013-01-09 23:52:00,55.9,54.9,30.00,West,274,0.0,3.0,96,0.00,,,0.00,meteohub,2013-01-10 05:52:00,
2013-01-09 23:57:00,55.8,54.7,30.00,West,272,1.0,1.0,96,0.00,,,0.00,meteohub,2013-01-10 05:57:00,